ATLAS 5 CENTAUR DEB, 43955

Orbit data source: Space-Track

ATLAS 5 CENTAUR DEB, 43955 is space debris in HEO originally from a launch on Wed, 17 Sep 2014 UTC launched from the Air Force Eastern Test Range (AFETR). Debris objects in space refer to the collection of defunct objects orbiting the Earth. Examples of debris include non-operational satellites, rocket bodies, and fragments generated from explosions, collisions, or faulty payload assembly.

Loading next visibility...
Identifier
43955, 2014-055J
Orbit
HEO
Country
Flag of USUS
Related business
Flag of USUnited Launch Alliance/Lockheed Martin (US)
Manufacturer
Unknown
Mission
Spacecraft
Bus & Motor
Unknown
Mass
Unknown
Launch date (UTC)
2014-09-17 (12 years ago)
Launch vehicle
Unknown
Launch site
Air Force Eastern Test Range (AFETR)
Object type
Payload
Rocket body
Debris
Shape & HBR
Unknown shape, 1.1 m
Radar Cross Section
Medium (>0.1 m² and <1 m²)

Expand to show TLE details & history
Last TLE update: 2 weeks ago

TLE from 2 weeks ago
0 ATLAS 5 CENTAUR DEB
1 43955U 14055J   26239.72189753 -.00000133  00000-0  00000-0 0  9993
2 43955  21.1102  92.9876 4910426 253.8956  48.4042  1.93302292 56352
Epoch: 2026-08-27T17:19Z
TLE epoch observation values (Epoch: 2026-08-27T17:19:31.946Z)
Latitude
Longitude
-142.74156°
Altitude
17,547.23 km
Speed
4.322 km/s
True Right ascension
06h 12m 23s
True Declination
0° 00' 00"
Sunlit
Object was in daylight at epoch
Visualization orbit readout
Latitude
Unknown
Longitude
Unknown
Altitude
Unknown
Speed
Unknown
Apparent Right ascension
Unknown
Apparent Declination
Unknown
Sunlit
N/A
Visualization observer readout
Local Sidereal Time
17:12:58
Azimuth
Unknown
Elevation
Unknown
Doppler factor
Unknown
Orbital elements
Apogee altitude
34,213.099 km
Perigee altitude
7,477.409 km
Semi-major axis
27,223.391 km
Eccentricity
0.49104
Inclination
21.1102°
RAAN
92.9876°
Arg. of periapsis
253.8956°
True anomaly
106.08759°
Mean anomaly
48.4042°
Eccentric anomaly
75.66259°
Mean motion
0.4832 °/min
Orbital period
745.03 mins
BSTAR
0
Loading maneuver chart data...
Computing Atmospheric mass density...

Documentation

Showing up to 5 results
|